This demonstration page uses our WeatherBlox Daily Observations layout. Learn more.

Left ArrowRight Arrow

34.02893, -84.19858

Hourly Observations for October 5, 2015

Temp ( °F °C ) Dew Point ( °F °C ) Humidity (%) Winds ( mph kmh ) Pressure ( in mb ) Visibility ( mi km ) Precip ( " mm )
12:53 am 00:53 Cloudy 66 18.9 61 16.1 84 84 NE 8 13 29.85 1011 10 16 0.00 0.00
1:53 am 01:53 Cloudy 66 18.9 61 16.1 84 84 NE 8 13 29.85 1011 10 16 0.00 0.00
2:53 am 02:53 Cloudy 66 18.9 61 16.1 84 84 NE 10 17 29.86 1011 10 16 0.00 0.00
3:53 am 03:53 Cloudy 66 18.9 60 15.6 81 81 NE 12 19 29.86 1011 10 16 0.00 0.00
4:12 am 04:12 Cloudy 64 18 59 15 83 83 NE 12 19 29.85 1011 10 16 0.00 0.00
4:35 am 04:35 Cloudy 65 18.3 59 15 81 81 NE 9 15 29.85 1011 10 16 0.00 0.00
4:53 am 04:53 Cloudy 65 18.3 59 15 81 81 NE 10 17 29.87 1011 10 16 0.00 0.00
5:53 am 05:53 Cloudy 65 18.3 59 15 81 81 NNE 10 17 29.88 1012 10 16 0.00 0.00
6:45 am 06:45 Cloudy 65 18.3 60 15.6 84 84 VRB 7 11 29.88 1012 10 16 0.00 0.00
6:53 am 06:53 Cloudy 65 18.3 60 15.6 84 84 NE 8 13 29.88 1012 10 16 0.00 0.00
7:53 am 07:53 Mostly Cloudy 65 18.3 60 15.6 84 84 NE 9 15 29.89 1012 10 16 0.00 0.00
8:53 am 08:53 Cloudy 66 18.9 61 16.1 84 84 VRB 6 9 29.92 1013 10 16 0.00 0.00
9:13 am 09:13 Cloudy 66 18.9 61 16.1 84 84 VRB 3 6 29.91 1013 10 16 0.00 0.00
9:53 am 09:53 Cloudy 67 19.4 61 16.1 81 81 ENE 10 17 29.93 1014 10 16 0.00 0.00
10:53 am 10:53 Mostly Cloudy 70 21.1 62 16.7 76 76 NE 8 13 29.94 1014 10 16 0.00 0.00
11:53 am 11:53 Cloudy 71 21.7 62 16.7 73 73 VRB 5 7 29.93 1014 10 16 0.00 0.00
12:53 pm 12:53 Cloudy 72 22.2 63 17.2 73 73 NE 7 11 29.93 1014 10 16 0.00 0.00
1:53 pm 13:53 Cloudy 77 25 64 17.8 64 64 NNE 7 11 29.91 1013 10 16 0.00 0.00
2:53 pm 14:53 Cloudy 75 23.9 63 17.2 66 66 NNE 6 9 29.91 1013 10 16 0.00 0.00
3:53 pm 15:53 Cloudy 74 23.3 63 17.2 69 69 VRB 7 11 29.91 1013 9 14 0.00 0.00
4:53 pm 16:53 Cloudy 70 21.1 66 18.9 87 87 Calm 29.92 1013 10 16 0.00 0.03
5:53 pm 17:53 Cloudy 71 21.7 66 18.9 84 84 Calm 29.92 1013 10 16 0.00 0.00
6:53 pm 18:53 Cloudy 70 21.1 66 18.9 87 87 W 3 6 29.94 1014 10 16 0.00 0.00
7:53 pm 19:53 Cloudy 69 20.6 67 19.4 93 93 Calm 29.96 1014 10 16 0.00 0.00
8:53 pm 20:53 Partly Cloudy 68 20 67 19.4 96 96 Calm 29.97 1015 10 16 0.00 0.00
9:53 pm 21:53 Clear 67 19.4 65 18.3 93 93 VRB 5 7 29.98 1015 10 16 0.00 0.00
10:53 pm 22:53 Clear 66 18.9 63 17.2 90 90 E 3 6 30.00 1016 10 16 0.00 0.00
11:53 pm 23:53 Clear 64 17.8 63 17.2 96 96 Calm 30.00 1016 10 16 0.00 0.00

Powered by AerisWeather